Zurück zum Katalog

COSMOS 970 DEB

AktivLEO
NORAD 64972·DEBRIS·🇷🇺 Russia

Gestartet Dec 21, 1977 von Baikonur Cosmodrome

Loading…

Nächste Überflüge (nächste 24 Stunden)

TLE

AlterndSource: Space-Track

Epoche: Sep 9, 2026, 23:41 UTC

1 64972U 77121CH  26252.98697786  .00000256  00000-0  39320-3 0  9996
2 64972  65.9991 348.5234 0067946  17.3415 342.9943 13.66919877638289

Verfolge COSMOS 970 DEB in Echtzeit mit AllMySat

Download on the App Store